QPF
0.00 0.00 0.00 0.00 0.00 0.00 0.00 0.00 0.00 0.00 0.00 0.01 0.01 0.01 0.00 0.01 0.01 0.01 0.00 0.00 0.01 0.01 0.01 0.01 0.02 0.01 0.01 0.02 0.02 0.03 0.07 0.07 0.07 0.08 0.06 0.04 0.04 0.04 0.04 0.05 0.05 0.04 0.04 0.03
0.00 0.00 0.00 0.00 0.00 0.00 0.00 0.00 0.00 0.00 0.00 0.00 0.01 0.01 0.01 0.01 0.00 0.00 0.00 0.00 0.01 0.01 0.01 0.01 0.01 0.01 0.01 0.01 0.02 0.04 0.06 0.05 0.04 0.04 0.04 0.03 0.04 0.05 0.04 0.05 0.05 0.04 0.04 0.03
0.00 0.00 0.00 0.00 0.00 0.00 0.00 0.00 0.00 0.00 0.00 0.00 0.01 0.01 0.01 0.01 0.00 0.00 0.00 0.00 0.01 0.01 0.01 0.01 0.01 0.01 0.01 0.02 0.03 0.05 0.07 0.04 0.03 0.02 0.02 0.02 0.03 0.03 0.03 0.04 0.04 0.04 0.05 0.05
0.00 0.00 0.00 0.00 0.00 0.00 0.00 0.00 0.00 0.00 0.00 0.01 0.01 0.01 0.01 0.01 0.00 0.00 0.00 0.01 0.01 0.01 0.01 0.01 0.01 0.01 0.01 0.02 0.03 0.05 0.05 0.02 0.02 0.01 0.02 0.04 0.07 0.06 0.04 0.04 0.04 0.04 0.03 0.04
0.00 0.00 0.00 0.00 0.00 0.00 0.00 0.01 0.01 0.00 0.00 0.00 0.00 0.01 0.01 0.01 0.01 0.01 0.01 0.01 0.01 0.02 0.02 0.02 0.01 0.01 0.01 0.02 0.03 0.03 0.02 0.02 0.02 0.01 0.01 0.01 0.04 0.08 0.09 0.09 0.09 0.06 0.03 0.02
0.00 0.00 0.00 0.00 0.00 0.00 0.00 0.00 0.00 0.00 0.00 0.00 0.00 0.00 0.00 0.00 0.01 0.00 0.01 0.01 0.02 0.03 0.03 0.02 0.01 0.01 0.01 0.02 0.02 0.03 0.03 0.03 0.02 0.01 0.02 0.01 0.01 0.03 0.07 0.10 0.09 0.06 0.03 0.03
0.00 0.00 0.00 0.00 0.00 0.00 0.00 0.00 0.00 0.00 0.00 0.00 0.00 0.00 0.00 0.00 0.01 0.01 0.01 0.01 0.02 0.03 0.03 0.03 0.02 0.02 0.02 0.03 0.04 0.06 0.05 0.04 0.02 0.01 0.01 0.01 0.02 0.03 0.04 0.04 0.04 0.04 0.04 0.03
0.00 0.00 0.00 0.00 0.00 0.00 0.00 0.00 0.00 0.00 0.00 0.00 0.01 0.01 0.00 0.01 0.01 0.01 0.01 0.01 0.01 0.02 0.04 0.03 0.03 0.02 0.02 0.03 0.04 0.05 0.05 0.03 0.02 0.02 0.02 0.01 0.01 0.01 0.01 0.01 0.02 0.02 0.03 0.05
0.01 0.01 0.00 0.00 0.00 0.00 0.00 0.00 0.00 0.00 0.00 0.01 0.01 0.01 0.01 0.01 0.01 0.01 0.01 0.01 0.01 0.01 0.04 0.05 0.05 0.03 0.04 0.04 0.05 0.04 0.03 0.03 0.02 0.02 0.02 0.02 0.02 0.02 0.01 0.01 0.01 0.01 0.02 0.02
0.02 0.01 0.01 0.01 0.01 0.01 0.01 0.01 0.01 0.01 0.01 0.01 0.01 0.01 0.01 0.01 0.01 0.02 0.02 0.02 0.02 0.02 0.03 0.06 0.05 0.06 0.06 0.06 0.06 0.06 0.04 0.03 0.03 0.03 0.03 0.04 0.03 0.03 0.02 0.02 0.01 0.01 0.01 0.01
0.02 0.02 0.02 0.02 0.02 0.02 0.01 0.01 0.02 0.02 0.02 0.02 0.02 0.02 0.01 0.01 0.01 0.02 0.02 0.02 0.03 0.04 0.03 0.04 0.05 0.05 0.05 0.05 0.05 0.05 0.04 0.03 0.03 0.03 0.03 0.04 0.03 0.02 0.02 0.02 0.02 0.01 0.01 0.01
0.02 0.02 0.02 0.03 0.03 0.02 0.03 0.03 0.04 0.03 0.03 0.03 0.02 0.02 0.02 0.02 0.03 0.03 0.02 0.02 0.02 0.03 0.04 0.04 0.05 0.05 0.04 0.04 0.04 0.04 0.04 0.03 0.02 0.02 0.02 0.02 0.02 0.03 0.04 0.02 0.02 0.02 0.01 0.02
0.02 0.01 0.02 0.02 0.03 0.03 0.04 0.05 0.06 0.05 0.05 0.05 0.05 0.04 0.03 0.03 0.04 0.04 0.04 0.03 0.03 0.03 0.04 0.04 0.04 0.03 0.03 0.03 0.03 0.04 0.04 0.04 0.04 0.03 0.02 0.01 0.01 0.01 0.01 0.01 0.00 0.01 0.01 0.02
0.02 0.02 0.02 0.02 0.02 0.05 0.07 0.06 0.06 0.07 0.07 0.07 0.05 0.05 0.05 0.05 0.05 0.05 0.06 0.05 0.03 0.03 0.03 0.04 0.04 0.04 0.03 0.03 0.03 0.03 0.04 0.05 0.04 0.03 0.02 0.01 0.01 0.00 0.00 0.00 0.01 0.02 0.02 0.02
0.02 0.03 0.04 0.03 0.02 0.02 0.06 0.07 0.06 0.07 0.08 0.07 0.06 0.05 0.05 0.05 0.05 0.05 0.05 0.05 0.05 0.04 0.04 0.05 0.05 0.04 0.04 0.04 0.04 0.04 0.05 0.05 0.03 0.02 0.01 0.01 0.00 0.00 0.00 0.01 0.01 0.02 0.02 0.02
0.03 0.03 0.03 0.03 0.02 0.02 0.04 0.05 0.05 0.05 0.05 0.05 0.04 0.04 0.04 0.04 0.04 0.05 0.06 0.07 0.06 0.06 0.05 0.06 0.05 0.04 0.04 0.05 0.05 0.05 0.05 0.05 0.04 0.02 0.01 0.01 0.01 0.01 0.02 0.02 0.03 0.04 0.03 0.03
0.04 0.05 0.05 0.04 0.04 0.05 0.05 0.06 0.05 0.05 0.04 0.03 0.03 0.03 0.03 0.02 0.03 0.04 0.03 0.03 0.04 0.03 0.04 0.04 0.05 0.06 0.06 0.06 0.05 0.05 0.05 0.04 0.04 0.03 0.02 0.01 0.02 0.02 0.03 0.04 0.03 0.03 0.03 0.03
0.07 0.05 0.04 0.04 0.06 0.06 0.06 0.06 0.06 0.05 0.04 0.03 0.03 0.03 0.02 0.02 0.02 0.03 0.02 0.02 0.03 0.04 0.03 0.03 0.04 0.06 0.09 0.07 0.05 0.05 0.04 0.04 0.04 0.04 0.04 0.03 0.03 0.04 0.04 0.04 0.03 0.03 0.04 0.04
0.09 0.07 0.04 0.04 0.06 0.05 0.05 0.05 0.05 0.05 0.04 0.03 0.03 0.03 0.03 0.03 0.02 0.03 0.03 0.03 0.03 0.03 0.04 0.03 0.02 0.03 0.05 0.07 0.07 0.06 0.05 0.05 0.04 0.04 0.05 0.05 0.05 0.06 0.06 0.05 0.05 0.06 0.06 0.06
0.12 0.10 0.07 0.06 0.05 0.05 0.06 0.06 0.04 0.05 0.05 0.04 0.04 0.04 0.04 0.04 0.04 0.04 0.03 0.03 0.03 0.04 0.03 0.04 0.03 0.02 0.02 0.03 0.05 0.04 0.04 0.06 0.08 0.06 0.04 0.05 0.05 0.05 0.05 0.04 0.05 0.06 0.06 0.06
0.13 0.13 0.12 0.08 0.07 0.07 0.07 0.06 0.06 0.06 0.05 0.05 0.05 0.04 0.04 0.05 0.04 0.04 0.04 0.03 0.03 0.04 0.03 0.03 0.02 0.04 0.04 0.03 0.05 0.05 0.05 0.06 0.07 0.09 0.08 0.06 0.05 0.07 0.08 0.07 0.05 0.05 0.05 0.05
0.11 0.11 0.12 0.11 0.09 0.09 0.08 0.07 0.07 0.06 0.05 0.04 0.04 0.03 0.03 0.05 0.05 0.04 0.04 0.03 0.03 0.03 0.03 0.02 0.02 0.02 0.03 0.03 0.03 0.03 0.03 0.04 0.04 0.05 0.07 0.08 0.09 0.08 0.07 0.07 0.06 0.05 0.04 0.03
0.07 0.07 0.08 0.08 0.07 0.07 0.08 0.08 0.07 0.05 0.03 0.03 0.03 0.03 0.03 0.03 0.03 0.04 0.05 0.03 0.02 0.02 0.02 0.02 0.02 0.03 0.03 0.02 0.02 0.02 0.03 0.05 0.06 0.06 0.04 0.04 0.05 0.05 0.04 0.04 0.04 0.05 0.05 0.05
0.06 0.05 0.05 0.04 0.04 0.04 0.04 0.03 0.02 0.02 0.02 0.02 0.02 0.02 0.02 0.02 0.03 0.04 0.05 0.04 0.03 0.02 0.02 0.02 0.02 0.02 0.02 0.02 0.02 0.02 0.03 0.03 0.04 0.03 0.03 0.03 0.03 0.02 0.02 0.03 0.03 0.03 0.03 0.03
0.05 0.04 0.03 0.02 0.03 0.04 0.04 0.03 0.03 0.03 0.02 0.02 0.02 0.02 0.02 0.02 0.03 0.04 0.05 0.05 0.04 0.03 0.02 0.02 0.02 0.02 0.01 0.01 0.01 0.01 0.01 0.01 0.02 0.02 0.02 0.01 0.01 0.02 0.01 0.01 0.01 0.01 0.02 0.03
0.04 0.04 0.03 0.02 0.03 0.05 0.05 0.04 0.03 0.02 0.02 0.02 0.02 0.02 0.02 0.02 0.03 0.04 0.05 0.05 0.05 0.04 0.03 0.02 0.02 0.02 0.01 0.01 0.01 0.01 0.01 0.01 0.01 0.01 0.01 0.01 0.01 0.01 0.02 0.01 0.01 0.01 0.01 0.02
0.04 0.04 0.04 0.04 0.05 0.05 0.03 0.03 0.02 0.02 0.01 0.02 0.01 0.01 0.01 0.02 0.03 0.03 0.03 0.04 0.05 0.05 0.04 0.03 0.03 0.02 0.02 0.02 0.01 0.01 0.01 0.01 0.01 0.01 0.01 0.01 0.01 0.02 0.02 0.02 0.02 0.02 0.02 0.02
MSLP
1012.80 1012.34 1011.98 1011.75 1011.62 1011.58 1011.57 1011.53 1011.42 1011.19 1010.83 1010.35 1009.78 1009.18 1008.59 1008.09 1007.70 1007.45 1007.37 1007.42 1007.62 1007.91 1008.29 1008.74 1009.24 1009.79 1010.38 1011.00 1011.64 1012.28 1012.92 1013.52 1014.07 1014.56 1014.98 1015.34 1015.64 1015.90 1016.14 1016.36 1016.58 1016.80 1017.02 1017.24
1013.31 1012.65 1012.01 1011.44 1010.95 1010.56 1010.27 1010.06 1009.89 1009.75 1009.59 1009.42 1009.20 1008.96 1008.69 1008.42 1008.18 1007.97 1007.82 1007.75 1007.77 1007.90 1008.13 1008.46 1008.90 1009.44 1010.06 1010.74 1011.45 1012.16 1012.86 1013.50 1014.09 1014.61 1015.06 1015.45 1015.80 1016.13 1016.43 1016.72 1017.01 1017.28 1017.55 1017.79
1013.67 1012.84 1011.97 1011.10 1010.29 1009.61 1009.07 1008.70 1008.48 1008.41 1008.43 1008.51 1008.61 1008.68 1008.70 1008.66 1008.55 1008.40 1008.22 1008.06 1007.95 1007.93 1008.04 1008.28 1008.66 1009.18 1009.81 1010.53 1011.29 1012.05 1012.78 1013.45 1014.05 1014.59 1015.06 1015.49 1015.89 1016.27 1016.64 1017.01 1017.37 1017.71 1018.02 1018.29
1013.74 1012.78 1011.72 1010.62 1009.58 1008.66 1007.94 1007.44 1007.19 1007.17 1007.33 1007.62 1007.97 1008.30 1008.57 1008.73 1008.76 1008.68 1008.51 1008.31 1008.13 1008.03 1008.05 1008.22 1008.57 1009.07 1009.70 1010.43 1011.21 1011.98 1012.72 1013.40 1014.00 1014.54 1015.03 1015.48 1015.92 1016.35 1016.79 1017.23 1017.66 1018.06 1018.41 1018.72
1013.42 1012.36 1011.17 1009.92 1008.72 1007.66 1006.81 1006.25 1005.98 1006.01 1006.28 1006.73 1007.27 1007.82 1008.28 1008.62 1008.79 1008.81 1008.70 1008.51 1008.32 1008.19 1008.18 1008.32 1008.65 1009.14 1009.76 1010.48 1011.25 1012.01 1012.73 1013.39 1013.98 1014.52 1015.00 1015.47 1015.94 1016.41 1016.91 1017.40 1017.89 1018.34 1018.74 1019.07
1012.67 1011.54 1010.27 1008.95 1007.68 1006.55 1005.67 1005.09 1004.84 1004.92 1005.29 1005.86 1006.55 1007.25 1007.88 1008.37 1008.68 1008.81 1008.79 1008.67 1008.52 1008.42 1008.43 1008.59 1008.91 1009.39 1009.99 1010.69 1011.43 1012.16 1012.84 1013.47 1014.03 1014.54 1015.02 1015.50 1015.98 1016.49 1017.02 1017.56 1018.08 1018.57 1018.99 1019.34
1011.56 1010.36 1009.06 1007.73 1006.47 1005.37 1004.52 1003.98 1003.79 1003.94 1004.39 1005.05 1005.85 1006.67 1007.42 1008.04 1008.48 1008.73 1008.83 1008.82 1008.76 1008.74 1008.80 1008.99 1009.33 1009.80 1010.38 1011.04 1011.73 1012.41 1013.04 1013.62 1014.15 1014.64 1015.11 1015.59 1016.08 1016.61 1017.16 1017.71 1018.25 1018.75 1019.18 1019.53
1010.19 1008.94 1007.64 1006.36 1005.17 1004.16 1003.41 1002.98 1002.88 1003.11 1003.63 1004.36 1005.23 1006.13 1006.98 1007.70 1008.25 1008.64 1008.87 1008.98 1009.05 1009.13 1009.27 1009.50 1009.86 1010.33 1010.88 1011.49 1012.12 1012.74 1013.31 1013.85 1014.34 1014.80 1015.26 1015.74 1016.24 1016.77 1017.32 1017.87 1018.40 1018.89 1019.30 1019.63
1008.75 1007.47 1006.19 1004.98 1003.91 1003.04 1002.44 1002.13 1002.14 1002.46 1003.05 1003.84 1004.76 1005.71 1006.62 1007.42 1008.08 1008.58 1008.94 1009.19 1009.38 1009.57 1009.79 1010.08 1010.46 1010.91 1011.43 1011.98 1012.55 1013.09 1013.61 1014.10 1014.56 1015.01 1015.46 1015.93 1016.43 1016.95 1017.49 1018.02 1018.53 1018.98 1019.36 1019.66
1007.42 1006.10 1004.87 1003.76 1002.82 1002.11 1001.67 1001.50 1001.64 1002.04 1002.69 1003.52 1004.47 1005.45 1006.39 1007.25 1007.99 1008.59 1009.07 1009.44 1009.75 1010.04 1010.34 1010.68 1011.06 1011.49 1011.97 1012.46 1012.95 1013.44 1013.90 1014.34 1014.78 1015.21 1015.66 1016.12 1016.62 1017.13 1017.64 1018.14 1018.60 1019.01 1019.34 1019.60
1006.33 1004.99 1003.80 1002.79 1002.00 1001.45 1001.16 1001.14 1001.38 1001.87 1002.56 1003.41 1004.36 1005.35 1006.31 1007.20 1008.00 1008.68 1009.26 1009.74 1010.15 1010.52 1010.88 1011.24 1011.62 1012.03 1012.45 1012.87 1013.30 1013.72 1014.13 1014.54 1014.95 1015.37 1015.81 1016.28 1016.77 1017.26 1017.75 1018.20 1018.62 1018.98 1019.26 1019.48
1005.51 1004.18 1003.05 1002.15 1001.48 1001.08 1000.93 1001.02 1001.36 1001.91 1002.63 1003.49 1004.43 1005.41 1006.37 1007.28 1008.12 1008.86 1009.50 1010.06 1010.55 1010.98 1011.38 1011.75 1012.12 1012.48 1012.84 1013.20 1013.56 1013.92 1014.28 1014.66 1015.05 1015.46 1015.90 1016.36 1016.84 1017.31 1017.77 1018.19 1018.55 1018.86 1019.10 1019.28
1004.92 1003.63 1002.58 1001.78 1001.24 1000.96 1000.93 1001.13 1001.54 1002.12 1002.87 1003.72 1004.65 1005.61 1006.56 1007.47 1008.33 1009.10 1009.80 1010.41 1010.94 1011.41 1011.82 1012.19 1012.53 1012.84 1013.14 1013.43 1013.73 1014.03 1014.35 1014.69 1015.07 1015.47 1015.91 1016.36 1016.82 1017.27 1017.69 1018.07 1018.39 1018.66 1018.86 1019.01
1004.43 1003.23 1002.28 1001.60 1001.19 1001.03 1001.10 1001.38 1001.85 1002.48 1003.23 1004.07 1004.98 1005.92 1006.85 1007.76 1008.62 1009.41 1010.13 1010.77 1011.32 1011.80 1012.21 1012.56 1012.86 1013.12 1013.36 1013.59 1013.83 1014.08 1014.35 1014.67 1015.02 1015.41 1015.82 1016.26 1016.70 1017.12 1017.51 1017.85 1018.14 1018.37 1018.54 1018.67
1003.91 1002.85 1002.05 1001.51 1001.24 1001.20 1001.37 1001.74 1002.26 1002.92 1003.68 1004.52 1005.42 1006.33 1007.25 1008.14 1008.99 1009.78 1010.50 1011.14 1011.69 1012.16 1012.54 1012.86 1013.12 1013.33 1013.52 1013.69 1013.87 1014.08 1014.32 1014.60 1014.92 1015.29 1015.68 1016.09 1016.50 1016.89 1017.24 1017.55 1017.80 1017.99 1018.14 1018.25
1003.25 1002.40 1001.79 1001.43 1001.31 1001.41 1001.70 1002.15 1002.74 1003.44 1004.22 1005.07 1005.95 1006.85 1007.75 1008.62 1009.44 1010.21 1010.91 1011.52 1012.04 1012.48 1012.84 1013.11 1013.33 1013.49 1013.63 1013.76 1013.90 1014.07 1014.27 1014.52 1014.82 1015.15 1015.51 1015.88 1016.25 1016.60 1016.91 1017.17 1017.38 1017.54 1017.67 1017.76
1002.43 1001.82 1001.45 1001.30 1001.37 1001.62 1002.04 1002.60 1003.27 1004.03 1004.84 1005.70 1006.58 1007.47 1008.33 1009.17 1009.96 1010.69 1011.34 1011.91 1012.39 1012.78 1013.09 1013.33 1013.50 1013.63 1013.74 1013.84 1013.95 1014.09 1014.26 1014.48 1014.74 1015.03 1015.34 1015.67 1015.98 1016.28 1016.53 1016.75 1016.92 1017.04 1017.14 1017.21
1001.48 1001.17 1001.06 1001.15 1001.43 1001.86 1002.43 1003.10 1003.86 1004.68 1005.54 1006.42 1007.30 1008.16 1009.00 1009.79 1010.52 1011.19 1011.78 1012.29 1012.71 1013.05 1013.31 1013.51 1013.65 1013.76 1013.84 1013.93 1014.02 1014.15 1014.30 1014.49 1014.71 1014.95 1015.22 1015.48 1015.73 1015.96 1016.15 1016.31 1016.43 1016.52 1016.57 1016.61
1000.56 1000.55 1000.72 1001.06 1001.54 1002.15 1002.87 1003.66 1004.51 1005.39 1006.29 1007.19 1008.06 1008.90 1009.69 1010.42 1011.09 1011.68 1012.20 1012.64 1012.99 1013.28 1013.50 1013.66 1013.79 1013.88 1013.97 1014.05 1014.15 1014.26 1014.40 1014.56 1014.75 1014.94 1015.14 1015.34 1015.52 1015.67 1015.80 1015.89 1015.96 1016.00 1016.01 1016.02
999.84 1000.11 1000.54 1001.10 1001.77 1002.55 1003.39 1004.29 1005.21 1006.14 1007.07 1007.96 1008.82 1009.62 1010.36 1011.02 1011.61 1012.13 1012.57 1012.93 1013.22 1013.46 1013.65 1013.79 1013.91 1014.02 1014.11 1014.21 1014.32 1014.43 1014.56 1014.70 1014.84 1014.99 1015.13 1015.25 1015.35 1015.43 1015.49 1015.52 1015.53 1015.53 1015.50 1015.48
999.46 999.98 1000.61 1001.35 1002.18 1003.07 1004.00 1004.96 1005.93 1006.88 1007.81 1008.69 1009.51 1010.26 1010.94 1011.53 1012.05 1012.49 1012.85 1013.15 1013.39 1013.59 1013.76 1013.90 1014.03 1014.15 1014.27 1014.39 1014.51 1014.63 1014.76 1014.87 1014.98 1015.07 1015.14 1015.19 1015.23 1015.24 1015.23 1015.21 1015.17 1015.13 1015.08 1015.04
999.53 1000.22 1001.00 1001.85 1002.76 1003.71 1004.68 1005.66 1006.63 1007.57 1008.47 1009.31 1010.09 1010.78 1011.39 1011.92 1012.36 1012.73 1013.04 1013.28 1013.49 1013.67 1013.83 1013.98 1014.12 1014.27 1014.42 1014.56 1014.70 1014.83 1014.94 1015.03 1015.10 1015.14 1015.15 1015.15 1015.12 1015.07 1015.01 1014.95 1014.89 1014.83 1014.77 1014.73
1000.05 1000.83 1001.68 1002.57 1003.50 1004.45 1005.40 1006.35 1007.28 1008.18 1009.02 1009.81 1010.52 1011.15 1011.69 1012.16 1012.55 1012.87 1013.13 1013.35 1013.53 1013.70 1013.87 1014.03 1014.20 1014.36 1014.53 1014.69 1014.84 1014.96 1015.06 1015.12 1015.15 1015.15 1015.12 1015.06 1014.99 1014.91 1014.82 1014.75 1014.68 1014.63 1014.59 1014.56
1000.93 1001.74 1002.59 1003.46 1004.34 1005.23 1006.12 1006.99 1007.85 1008.67 1009.44 1010.16 1010.80 1011.37 1011.86 1012.28 1012.63 1012.91 1013.15 1013.35 1013.53 1013.70 1013.87 1014.04 1014.22 1014.40 1014.58 1014.74 1014.88 1014.99 1015.07 1015.10 1015.10 1015.06 1014.99 1014.91 1014.81 1014.72 1014.64 1014.58 1014.54 1014.52 1014.52 1014.54
1002.05 1002.82 1003.60 1004.40 1005.19 1005.98 1006.78 1007.56 1008.32 1009.05 1009.75 1010.39 1010.98 1011.49 1011.94 1012.32 1012.64 1012.90 1013.12 1013.32 1013.50 1013.67 1013.84 1014.01 1014.19 1014.36 1014.53 1014.67 1014.79 1014.87 1014.92 1014.92 1014.89 1014.83 1014.75 1014.66 1014.57 1014.50 1014.45 1014.43 1014.44 1014.48 1014.54 1014.62
1003.20 1003.90 1004.60 1005.29 1005.98 1006.66 1007.35 1008.03 1008.70 1009.35 1009.97 1010.55 1011.08 1011.56 1011.97 1012.33 1012.62 1012.88 1013.09 1013.27 1013.44 1013.60 1013.76 1013.92 1014.07 1014.22 1014.35 1014.46 1014.55 1014.59 1014.61 1014.59 1014.54 1014.47 1014.40 1014.33 1014.28 1014.25 1014.26 1014.30 1014.38 1014.49 1014.63 1014.77
1004.25 1004.86 1005.46 1006.05 1006.64 1007.23 1007.82 1008.42 1009.01 1009.59 1010.15 1010.69 1011.18 1011.62 1012.00 1012.33 1012.62 1012.85 1013.05 1013.21 1013.36 1013.49 1013.62 1013.74 1013.86 1013.96 1014.05 1014.11 1014.15 1014.17 1014.16 1014.12 1014.08 1014.03 1013.98 1013.96 1013.96 1014.00 1014.09 1014.21 1014.37 1014.55 1014.75 1014.95
Thickness
5743 5754 5757 5759 5760 5759 5756 5752 5747 5757 5764 5783 5793 5798 5801 5802 5801 5801 5800 5800 5799 5797 5795 5793 5791 5789 5787 5783 5780 5777 5772 5768 5766 5764 5761 5758 5756 5753 5751 5750 5749 5748 5746 5745
5735 5746 5750 5751 5757 5759 5760 5759 5758 5763 5767 5789 5795 5796 5796 5798 5798 5797 5797 5798 5798 5796 5794 5792 5790 5787 5785 5782 5779 5776 5771 5768 5765 5762 5759 5757 5754 5751 5749 5747 5746 5745 5743 5742
5713 5729 5738 5732 5751 5756 5758 5762 5762 5758 5772 5783 5785 5790 5794 5796 5797 5797 5797 5797 5796 5795 5794 5792 5790 5788 5784 5782 5779 5775 5771 5767 5764 5761 5757 5754 5753 5749 5746 5744 5742 5741 5740 5739
5697 5712 5706 5735 5759 5762 5759 5760 5764 5768 5774 5780 5785 5791 5795 5796 5795 5794 5795 5794 5794 5793 5792 5791 5789 5787 5783 5779 5776 5773 5769 5766 5763 5759 5755 5752 5749 5746 5743 5740 5738 5737 5735 5734
5682 5690 5705 5732 5749 5752 5750 5751 5763 5765 5770 5775 5781 5783 5785 5791 5793 5793 5793 5793 5793 5792 5791 5788 5786 5784 5780 5775 5772 5769 5766 5764 5762 5758 5753 5749 5746 5743 5740 5737 5735 5733 5732 5730
5677 5684 5689 5722 5747 5755 5750 5739 5759 5762 5763 5765 5770 5763 5774 5786 5787 5788 5788 5788 5788 5788 5786 5783 5781 5779 5775 5771 5768 5766 5765 5763 5760 5756 5752 5747 5744 5741 5738 5735 5732 5730 5728 5726
5673 5679 5694 5724 5740 5747 5725 5734 5755 5758 5760 5760 5762 5769 5776 5781 5781 5781 5782 5783 5783 5782 5780 5777 5776 5773 5769 5766 5764 5764 5762 5759 5756 5753 5749 5745 5741 5738 5735 5731 5728 5725 5723 5721
5665 5671 5688 5722 5728 5725 5728 5742 5748 5753 5756 5757 5761 5766 5770 5772 5773 5773 5774 5776 5776 5773 5772 5771 5770 5767 5763 5761 5760 5758 5756 5753 5750 5748 5746 5742 5737 5734 5730 5727 5723 5720 5717 5715
5673 5683 5700 5710 5716 5724 5729 5734 5740 5745 5750 5752 5754 5757 5761 5762 5764 5765 5767 5767 5768 5765 5763 5763 5763 5762 5758 5756 5755 5752 5749 5747 5744 5742 5739 5737 5733 5729 5725 5722 5719 5716 5713 5711
5669 5683 5694 5702 5710 5717 5724 5729 5735 5740 5744 5747 5747 5750 5752 5754 5755 5756 5758 5758 5758 5756 5754 5753 5754 5754 5752 5750 5749 5746 5743 5740 5737 5735 5732 5729 5727 5724 5720 5717 5714 5712 5709 5706
5662 5674 5684 5695 5701 5708 5715 5721 5727 5731 5735 5738 5739 5741 5743 5744 5746 5748 5749 5749 5749 5748 5747 5745 5744 5744 5744 5743 5742 5739 5736 5733 5730 5727 5725 5722 5719 5717 5715 5714 5712 5709 5706 5703
5656 5668 5671 5680 5691 5699 5703 5709 5715 5720 5723 5727 5729 5730 5733 5734 5736 5738 5739 5739 5738 5738 5737 5735 5735 5735 5735 5735 5734 5731 5728 5725 5722 5719 5717 5715 5712 5709 5707 5706 5705 5703 5701 5698
5659 5665 5668 5676 5683 5690 5694 5700 5706 5710 5712 5714 5718 5720 5722 5722 5724 5725 5727 5729 5728 5728 5727 5726 5726 5725 5725 5726 5724 5722 5720 5718 5715 5712 5710 5707 5705 5701 5698 5697 5697 5695 5693 5691
5655 5658 5660 5667 5673 5680 5685 5690 5694 5698 5701 5704 5705 5708 5710 5711 5712 5713 5714 5717 5718 5719 5717 5717 5716 5715 5716 5716 5714 5713 5712 5711 5709 5706 5703 5700 5698 5695 5693 5691 5688 5687 5685 5683
5648 5652 5655 5661 5666 5671 5675 5678 5681 5684 5688 5691 5695 5697 5699 5699 5700 5701 5704 5706 5707 5708 5707 5707 5706 5706 5706 5706 5705 5704 5703 5702 5699 5697 5695 5693 5691 5689 5686 5684 5682 5679 5677 5675
5641 5645 5648 5651 5656 5661 5664 5667 5669 5672 5676 5680 5682 5685 5688 5689 5690 5692 5694 5696 5696 5696 5697 5696 5697 5696 5697 5696 5695 5694 5693 5693 5691 5688 5687 5685 5683 5681 5678 5676 5675 5672 5670 5667
5632 5635 5639 5643 5648 5652 5655 5658 5661 5663 5666 5667 5670 5673 5676 5679 5680 5681 5684 5686 5687 5687 5687 5687 5688 5688 5688 5688 5687 5686 5685 5684 5683 5681 5679 5678 5676 5674 5672 5669 5667 5665 5662 5660
5632 5635 5637 5639 5642 5644 5647 5650 5652 5653 5655 5658 5661 5662 5665 5668 5670 5672 5675 5676 5677 5678 5679 5680 5681 5681 5679 5678 5678 5677 5676 5675 5674 5672 5671 5669 5667 5665 5663 5661 5659 5657 5654 5651
5627 5629 5631 5634 5636 5638 5639 5641 5644 5646 5648 5650 5652 5653 5655 5657 5660 5663 5665 5666 5667 5668 5670 5672 5672 5671 5670 5669 5669 5668 5667 5666 5664 5663 5662 5660 5658 5656 5655 5653 5651 5649 5646 5643
5622 5625 5626 5628 5630 5631 5632 5635 5637 5638 5640 5642 5643 5644 5645 5648 5651 5654 5656 5657 5658 5660 5663 5663 5664 5663 5662 5662 5662 5660 5659 5657 5656 5654 5652 5651 5650 5649 5647 5645 5643 5641 5638 5636
5616 5618 5620 5621 5623 5625 5626 5628 5629 5630 5632 5634 5635 5636 5638 5640 5642 5644 5646 5647 5650 5652 5653 5653 5654 5655 5655 5654 5653 5652 5650 5649 5647 5646 5644 5643 5642 5640 5638 5636 5635 5633 5631 5628
5610 5612 5614 5615 5617 5618 5619 5621 5622 5624 5625 5626 5628 5630 5631 5632 5633 5635 5638 5639 5641 5643 5644 5645 5646 5647 5646 5645 5645 5643 5641 5640 5639 5637 5636 5634 5633 5631 5630 5628 5626 5625 5622 5620
5605 5607 5608 5610 5612 5612 5613 5614 5615 5618 5619 5620 5622 5624 5624 5625 5627 5628 5629 5632 5633 5635 5636 5637 5637 5638 5637 5636 5635 5634 5633 5631 5630 5629 5628 5627 5625 5623 5622 5621 5619 5617 5614 5612
5600 5601 5602 5604 5605 5606 5606 5608 5610 5612 5614 5615 5617 5618 5619 5619 5619 5621 5624 5626 5627 5628 5628 5628 5628 5629 5629 5628 5627 5626 5625 5624 5623 5622 5621 5620 5618 5617 5615 5613 5611 5609 5607 5604
5596 5597 5598 5599 5600 5601 5602 5603 5605 5606 5608 5609 5610 5612 5613 5614 5615 5616 5618 5619 5620 5621 5622 5621 5621 5621 5621 5620 5620 5619 5618 5616 5616 5615 5613 5612 5610 5609 5607 5606 5604 5602 5599 5597
5592 5592 5593 5595 5596 5597 5600 5600 5601 5602 5603 5603 5604 5605 5607 5608 5610 5611 5611 5612 5613 5614 5614 5614 5614 5613 5613 5613 5612 5612 5610 5609 5607 5606 5605 5604 5602 5601 5599 5598 5596 5594 5591 5589
5588 5589 5589 5590 5592 5594 5596 5596 5597 5598 5599 5600 5600 5601 5602 5603 5604 5604 5605 5605 5606 5606 5606 5606 5607 5606 5606 5605 5604 5603 5602 5601 5599 5598 5597 5596 5594 5592 5591 5589 5587 5585 5583 5580